RH
54 50 46 39 35 41 44 46 59 63 78 80 88 83 87 86 88 94 84 87 79 84 92 92 90 88 86 85 82 84 84 85 89
69 60 48 38 33 41 46 47 56 63 76 77 80 80 86 88 88 85 84 83 83 88 91 89 84 75 78 79 84 80 84 83 87
69 74 74 60 37 35 43 47 57 64 71 76 75 75 81 83 86 83 88 88 82 91 95 92 83 73 86 88 88 85 84 88 90
80 88 82 81 74 63 41 44 55 65 71 74 73 70 75 78 79 81 87 91 84 86 92 89 88 91 89 86 83 83 86 88 88
84 81 78 85 88 78 77 44 59 65 69 72 69 68 70 75 77 77 81 90 88 87 91 91 90 91 88 84 84 85 88 87 84
82 88 86 91 93 88 90 81 50 66 66 68 67 67 72 70 74 74 77 80 80 89 87 86 83 86 89 86 87 86 85 88 88
78 89 94 93 95 94 94 92 95 74 85 90 88 68 72 71 77 70 72 77 71 75 86 85 85 83 88 86 89 88 83 84 86
91 92 93 95 94 96 95 92 90 93 76 86 88 96 68 72 65 71 74 78 78 76 80 80 80 82 84 88 84 77 87 88 85
89 94 94 97 93 90 91 93 91 96 92 87 90 82 74 78 78 80 86 87 88 88 86 85 88 89 90 89 74 97 92 90 91
93 92 96 96 98 92 93 95 99 99 98 96 87 88 93 89 89 89 89 89 89 89 91 92 93 93 94 94 95 96 96 95 90
90 90 92 96 97 96 96 97 98 98 96 96 95 94 95 94 92 92 89 89 93 91 91 92 94 94 93 93 99 98 94 94 94
80 81 88 91 94 95 94 96 97 98 94 94 92 92 94 95 94 95 94 94 95 94 94 97 98 99 99 99 99 99 99 99 97
80 77 81 87 88 96 96 97 96 97 94 94 98 99 99 98 97 97 97 96 98 99 99 99 96 98 99 99 99 99 99 100 99
78 78 85 87 90 94 97 96 97 98 99 99 99 98 98 98 98 99 99 98 97 98 98 98 98 98 99 98 99 99 99 100 99
76 86 81 82 90 96 95 97 97 99 99 99 96 94 97 98 98 95 96 98 94 94 93 98 99 99 99 99 98 96 96 98 100
82 79 83 82 86 94 92 94 95 99 99 98 97 94 98 95 92 95 95 96 98 99 96 98 95 97 93 94 94 96 92 92 94
80 77 78 82 85 91 96 94 95 97 95 96 97 98 95 90 89 85 83 82 82 85 89 90 92 84 98 98 88 88 92 94 99
78 80 75 80 83 86 92 94 92 90 90 89 93 94 92 91 87 87 93 99 99 98 98 95 88 87 89 94 96 99 99 100 99
84 84 81 82 80 81 85 91 92 92 89 86 86 89 88 88 85 86 86 87 96 93 96 95 93 92 90 98 96 93 85 85 92
82 75 78 80 76 76 87 83 78 79 85 89 89 93 93 82 80 81 89 91 94 98 95 92 93 93 90 90 93 87 79 81 81
Wind_Speed
13 16 11 14 13 15 20 18 19 18 14 11 9 9 8 7 7 5 5 6 4 4 4 3 4 5 5 5 4 4 2 3 3
14 12 7 15 17 14 19 18 19 18 16 13 12 11 8 7 7 6 5 3 3 4 6 5 4 1 4 4 4 5 3 2 3
17 13 8 4 13 17 19 17 17 17 17 17 15 12 10 8 7 7 5 4 3 6 5 5 6 3 4 4 4 6 2 2 1
12 7 16 5 10 9 18 17 19 18 16 16 14 13 11 11 9 7 6 6 6 7 6 6 4 5 6 5 3 4 4 3 4
6 12 15 2 8 9 7 15 17 19 17 16 15 13 12 11 12 11 9 8 8 7 7 7 7 7 7 5 3 3 4 6 5
2 3 7 8 7 13 12 11 12 17 16 15 12 10 11 10 10 10 8 9 8 8 8 6 6 5 6 6 6 6 5 6 6
6 6 6 7 8 10 11 12 13 5 9 8 6 8 10 11 9 11 8 8 10 7 7 7 7 7 7 8 7 7 6 6 6
8 10 8 2 4 10 8 12 15 13 7 7 7 6 10 12 11 9 7 7 7 7 7 7 8 7 6 6 6 4 5 6 5
7 7 8 8 6 9 8 5 10 11 3 10 16 15 15 11 10 10 9 7 7 7 6 6 5 4 3 4 3 8 2 4 4
4 2 5 7 3 7 6 8 8 10 5 3 12 8 4 4 6 7 7 6 6 5 3 2 3 4 5 6 1 1 2 3 2
6 2 2 5 5 6 8 2 5 7 6 3 4 8 8 5 1 3 3 3 1 1 2 1 1 2 2 2 5 5 4 3 3
5 5 3 5 1 3 4 3 4 6 6 5 3 4 5 4 7 5 4 3 4 3 3 5 6 6 7 6 7 9 7 5 4
4 2 1 1 1 2 4 5 4 4 2 3 6 5 7 8 8 6 4 4 6 6 6 7 6 6 6 8 5 9 7 6 3
2 1 6 5 5 3 3 3 2 8 8 6 5 4 6 7 7 7 7 6 6 6 8 8 7 7 7 7 7 8 10 7 4
9 5 5 6 4 5 5 6 7 9 8 7 8 9 9 9 7 6 6 7 7 8 7 8 5 6 6 6 7 11 10 9 7
8 6 6 5 6 4 4 5 5 6 3 5 6 9 7 7 6 5 5 6 6 5 5 5 5 4 5 3 2 4 11 14 13
9 5 5 4 5 6 4 5 4 3 4 6 7 7 6 5 6 7 8 6 6 5 4 3 3 5 4 3 4 4 5 4 4
7 6 4 5 4 4 5 3 4 5 4 6 7 7 4 4 5 6 7 7 5 5 4 2 3 3 4 4 4 2 2 4 3
7 7 5 5 6 5 5 6 2 4 6 5 7 6 3 3 4 5 5 6 6 11 7 5 10 9 7 4 9 7 4 5 6
9 7 6 5 6 6 5 6 5 3 5 6 6 6 4 3 3 5 6 5 6 6 4 9 10 9 9 7 7 5 5 4 5
Wind_Direction
243 248 209 191 196 166 171 172 167 169 170 172 168 165 174 168 161 168 179 203 177 133 138 136 97 89 66 285 211 221 247 249 268
253 286 203 188 164 177 177 175 172 168 167 173 174 175 167 167 172 179 199 157 156 128 145 155 138 220 244 251 277 238 213 257 268
198 262 301 223 211 179 173 171 170 169 170 172 182 172 168 171 176 177 191 133 144 125 138 180 170 155 232 249 223 228 176 231 218
167 247 281 300 36 319 178 168 168 172 172 172 182 178 171 169 177 185 187 169 191 190 175 192 182 202 221 219 211 235 190 227 261
164 186 232 175 51 12 353 178 167 172 174 176 182 179 176 171 175 181 186 179 191 203 199 192 180 206 186 195 213 215 225 216 228
276 217 167 131 62 37 11 344 187 174 174 174 173 176 173 180 181 187 186 186 195 192 188 188 209 209 185 203 211 220 232 217 219
17 343 349 83 75 62 14 343 13 225 128 116 85 186 166 178 177 191 196 192 197 183 181 190 205 204 195 200 204 212 233 239 221
35 15 355 40 96 67 31 351 1 334 155 128 100 340 191 176 192 182 183 180 175 177 175 188 199 211 224 211 193 203 240 256 238
41 5 350 1 99 87 22 330 341 291 272 149 144 248 227 179 179 175 178 182 186 186 198 201 193 202 221 254 204 135 150 358 355
114 38 339 340 30 140 131 357 0 290 306 227 186 197 101 121 176 182 161 161 153 151 138 34 343 301 283 264 244 160 1 337 335
143 167 240 277 326 341 88 118 260 276 273 81 138 150 116 134 97 50 85 118 185 79 91 41 353 302 315 307 66 70 40 3 38
92 119 193 271 260 307 358 42 328 311 321 34 43 68 70 82 103 103 101 92 94 86 86 48 51 34 35 53 54 32 30 34 43
100 112 233 160 338 36 8 311 286 317 148 49 5 54 61 62 66 77 70 105 95 74 79 80 77 66 50 57 60 27 42 52 49
67 147 74 52 25 8 312 309 179 70 52 35 70 95 84 79 81 82 76 71 68 78 85 84 74 73 55 53 36 29 31 25 89
133 153 136 114 70 17 9 0 64 73 49 21 53 66 67 64 61 89 101 106 90 84 90 90 89 85 67 50 38 31 22 38 59
137 159 164 130 110 88 51 37 22 89 46 78 64 68 50 65 58 59 75 89 113 119 109 111 114 110 98 89 82 53 53 48 46
126 137 110 117 118 108 80 91 75 51 64 72 85 73 64 54 56 49 49 51 43 61 52 105 128 114 113 106 74 45 18 32 36
118 130 125 122 126 118 124 87 111 115 95 96 89 82 83 79 77 77 73 57 32 57 48 15 64 76 110 122 97 98 39 21 62
132 131 141 135 131 113 105 129 134 110 144 129 120 115 114 122 125 116 108 98 78 47 54 56 67 82 104 48 105 128 88 52 47
137 130 132 147 129 125 137 136 115 129 141 139 122 124 122 136 135 146 133 128 117 110 31 60 59 73 106 110 148 126 92 50 6